TimePDT,TemperatureF,Dew PointF,Humidity,Sea Level PressureIn,VisibilityMPH,Wind Direction,Wind SpeedMPH,Gust SpeedMPH,PrecipitationIn,Events,Conditions,WindDirDegrees,DateUTC
12:05 AM,46.4,44.6,93,30.07,1.5,Calm,Calm,-,N/A,,Overcast,0,2013-10-11 07:05:00
12:08 AM,46.4,44.6,93,30.07,3.0,Calm,Calm,-,N/A,,Overcast,0,2013-10-11 07:08:00
12:22 AM,48.2,44.6,87,30.08,5.0,Calm,Calm,-,N/A,,Overcast,0,2013-10-11 07:22:00
12:45 AM,48.2,44.6,87,30.08,1.8,Calm,Calm,-,N/A,,Overcast,0,2013-10-11 07:45:00
12:50 AM,48.2,44.6,87,30.08,0.8,Calm,Calm,-,N/A,,Overcast,0,2013-10-11 07:50:00
12:53 AM,48.0,45.0,89,30.08,0.8,Calm,Calm,-,N/A,,Overcast,0,2013-10-11 07:53:00
1:14 AM,48.2,44.6,87,30.09,1.5,Calm,Calm,-,N/A,,Overcast,0,2013-10-11 08:14:00
1:21 AM,48.2,46.4,93,30.09,3.0,Calm,Calm,-,N/A,,Overcast,0,2013-10-11 08:21:00
1:53 AM,48.0,45.0,89,30.09,5.0,Calm,Calm,-,N/A,,Overcast,0,2013-10-11 08:53:00
2:01 AM,48.2,44.6,87,30.09,4.0,Calm,Calm,-,N/A,,Overcast,0,2013-10-11 09:01:00
2:53 AM,48.0,44.1,86,30.09,7.0,Calm,Calm,-,N/A,,Overcast,0,2013-10-11 09:53:00
3:36 AM,46.4,44.6,93,30.09,7.0,Calm,Calm,-,N/A,,Overcast,0,2013-10-11 10:36:00
3:53 AM,48.0,44.1,86,30.09,7.0,Calm,Calm,-,N/A,,Overcast,0,2013-10-11 10:53:00
4:10 AM,46.4,42.8,87,30.09,8.0,Calm,Calm,-,N/A,,Overcast,0,2013-10-11 11:10:00
4:18 AM,46.4,42.8,87,30.09,8.0,Calm,Calm,-,N/A,,Mostly Cloudy,0,2013-10-11 11:18:00
4:53 AM,46.0,43.0,89,30.10,7.0,Calm,Calm,-,N/A,,Mostly Cloudy,0,2013-10-11 11:53:00
5:01 AM,46.4,42.8,87,30.10,7.0,Calm,Calm,-,N/A,,Mostly Cloudy,0,2013-10-11 12:01:00
5:12 AM,46.4,42.8,87,30.10,7.0,Calm,Calm,-,N/A,,Mostly Cloudy,0,2013-10-11 12:12:00
5:53 AM,46.9,43.0,86,30.11,7.0,Calm,Calm,-,N/A,,Overcast,0,2013-10-11 12:53:00
6:34 AM,48.2,44.6,87,30.11,7.0,Calm,Calm,-,N/A,,Mostly Cloudy,0,2013-10-11 13:34:00
6:53 AM,46.0,42.1,86,30.11,6.0,Calm,Calm,-,N/A,,Scattered Clouds,0,2013-10-11 13:53:00
7:53 AM,46.9,43.0,86,30.12,6.0,ENE,5.8,-,N/A,,Overcast,70,2013-10-11 14:53:00
8:09 AM,48.2,44.6,87,30.11,5.0,Calm,Calm,-,0.00,Rain,Light Rain,0,2013-10-11 15:09:00
8:19 AM,48.2,44.6,87,30.11,6.0,Calm,Calm,-,0.00,,Overcast,0,2013-10-11 15:19:00
8:53 AM,48.9,45.0,86,30.12,6.0,Calm,Calm,-,0.00,,Overcast,0,2013-10-11 15:53:00
9:53 AM,51.1,46.9,86,30.13,7.0,Calm,Calm,-,N/A,,Clear,0,2013-10-11 16:53:00
10:46 AM,53.6,48.2,82,30.13,6.0,Calm,Calm,-,N/A,,Haze,0,2013-10-11 17:46:00
10:53 AM,54.0,48.9,83,30.13,6.0,Calm,Calm,-,N/A,,Haze,0,2013-10-11 17:53:00
11:53 AM,55.9,48.9,77,30.13,5.0,Variable,4.6,-,N/A,,Haze,0,2013-10-11 18:53:00
12:16 PM,57.2,48.2,72,30.13,5.0,South,5.8,-,N/A,,Haze,190,2013-10-11 19:16:00
12:42 PM,55.4,48.2,77,30.13,5.0,WSW,6.9,-,N/A,,Haze,250,2013-10-11 19:42:00
12:53 PM,55.9,46.9,72,30.14,5.0,WSW,5.8,-,N/A,,Haze,240,2013-10-11 19:53:00
1:09 PM,55.4,46.4,72,30.13,5.0,WSW,5.8,-,N/A,,Haze,240,2013-10-11 20:09:00
1:53 PM,57.0,46.0,67,30.13,6.0,SW,5.8,-,N/A,,Haze,230,2013-10-11 20:53:00
2:53 PM,57.9,46.0,65,30.13,6.0,SSW,9.2,-,N/A,,Haze,210,2013-10-11 21:53:00
3:53 PM,57.9,45.0,62,30.12,6.0,Variable,4.6,-,N/A,,Haze,0,2013-10-11 22:53:00
4:14 PM,57.2,44.6,63,30.12,6.0,West,6.9,-,N/A,,Haze,260,2013-10-11 23:14:00
4:53 PM,57.0,44.1,62,30.12,6.0,WSW,6.9,-,N/A,,Haze,240,2013-10-11 23:53:00
5:53 PM,55.0,44.1,67,30.11,6.0,Calm,Calm,-,N/A,,Haze,0,2013-10-12 00:53:00
6:53 PM,52.0,46.0,80,30.10,7.0,Calm,Calm,-,N/A,,Clear,0,2013-10-12 01:53:00
7:53 PM,52.0,45.0,77,30.09,7.0,Calm,Calm,-,N/A,,Partly Cloudy,0,2013-10-12 02:53:00
8:49 PM,50.0,44.6,82,30.09,6.0,Calm,Calm,-,N/A,,Haze,0,2013-10-12 03:49:00
8:53 PM,50.0,45.0,83,30.09,6.0,Calm,Calm,-,N/A,,Haze,0,2013-10-12 03:53:00
9:02 PM,50.0,44.6,82,30.09,6.0,Calm,Calm,-,N/A,,Haze,0,2013-10-12 04:02:00
9:53 PM,50.0,45.0,83,30.09,6.0,Calm,Calm,-,N/A,,Haze,0,2013-10-12 04:53:00
10:53 PM,50.0,46.0,86,30.09,6.0,Calm,Calm,-,N/A,,Overcast,0,2013-10-12 05:53:00
11:53 PM,50.0,45.0,83,30.09,6.0,Calm,Calm,-,0.00,Rain,Light Rain,0,2013-10-12 06:53:00